Terug naar catalogus

BREEZE-M DEB

ActiefHEO
NORAD 48535·DEBRIS·🇷🇺 Russia

Gelanceerd Mar 14, 2008 vanaf Baikonur Cosmodrome

Loading…

Volgende Passages (komende 24 uur)

TLE

VersSource: Space-Track

Epoch: Sep 13, 2026, 17:44 UTC

1 48535U 08011EA  26256.73944263  .00001088  00000-0  29936-1 0  9991
2 48535  50.3805  63.0644 6400946  70.7664 345.2727  3.08512169 52800

Volg BREEZE-M DEB in realtime met AllMySat

Download on the App Store